[[{"header":{"parameterUnit":"m.s-1","parameterCategory":1,"la1":30.2991,"la2":30.254,"lo1":-89.0895,"lo2":-89.0444,"dy":0.0017,"dx":0.0017,"nx":28,"ny":28,"refTime":"2025-06-09T21:00:00:Z","depth":0,"parameterNumber":2,"parameterNumberName":"U-component_of_WINDS"},"data":[0,0,0,0,0,0,0,0,0,0,0,0,0,0,0,0,0,0,0,0,0,0,0,0,0,0,0,0,0,0,0,0,0,0,0,0,0,0,0,0,0,0,0,0,0,0,0,0,0,0,0,0,0,0,0,0,0,0,4.7586,4.7588,0,4.7804,4.7806,4.7809,4.7797,4.7794,4.7791,4.7788,4.8016,4.8025,4.8034,0,0,0,0,0,0,0,0,0,0,0,0,0,4.7163,4.7171,4.7586,4.7589,4.7591,4.7803,4.7806,4.7809,4.7798,4.7794,4.779,4.7787,4.8013,4.8024,4.8035,0,0,0,0,0,0,0,0,0,0,0,0,0,4.7361,4.7174,4.7585,4.7611,4.7615,4.7803,4.7807,4.781,4.7799,4.7794,4.7789,4.7785,4.801,4.8023,4.8036,4.8214,0,0,4.8077,4.8083,0,0,0,0,0,0,0,0,4.735,4.7376,4.7605,4.761,4.7615,4.7768,4.7741,4.7946,4.78,4.7729,4.7788,4.7782,4.7938,4.7957,4.8008,4.8225,4.8234,4.8079,4.8087,4.8093,4.8096,0,0,0,0,0,0,0,4.7336,4.7367,4.7672,4.7608,4.7614,4.7613,4.7635,4.778,4.7858,4.7735,4.7735,4.776,4.794,4.7995,4.8014,4.8238,4.8078,4.809,4.8099,4.8104,4.8608,4.8613,0,0,0,0,0,0,4.7316,4.7355,4.7665,4.7679,4.7468,4.7624,4.765,4.7724,4.7856,4.7871,4.7764,4.7759,4.7975,4.7998,4.8022,4.8236,4.8092,4.8105,4.8113,4.8603,4.861,4.8615,0,0,0,0,0,0,4.7307,4.7344,4.7657,4.7517,4.7557,4.7636,4.772,4.7731,4.7786,4.7878,4.7892,4.7806,4.7972,4.8003,4.8165,4.8244,4.8111,4.8123,4.8597,4.8605,4.8612,4.8668,0,0,0,0,0,0,4.7295,4.7341,4.7408,4.7519,4.7564,4.7796,4.7725,4.7738,4.7809,4.7804,4.7921,4.7936,4.797,4.8145,4.8179,4.826,4.8134,4.859,4.8601,4.861,4.866,4.8677,4.8692,0,0,0,0,0,4.728,4.7417,4.7412,4.7449,4.765,4.78,4.7827,4.7862,4.7815,4.7884,4.7943,4.7932,4.823,4.8162,4.82,4.8287,4.8585,4.8598,4.8609,4.8653,4.8674,4.8692,0,0,0,0,0,0,4.7316,4.7432,4.7427,4.7604,4.7692,4.7798,4.7886,4.7884,4.7988,4.7979,4.802,4.8047,4.821,4.8265,4.8186,4.8464,4.8402,4.8422,4.8422,4.8443,4.8459,4.8442,4.8145,0,0,0,0,0,4.7344,4.7455,4.7551,4.7698,4.7742,4.7806,4.7873,4.7892,4.7986,4.8024,4.8094,4.8187,4.8301,4.8375,4.8486,4.8668,4.8693,4.8747,4.8763,4.8775,4.8792,4.889,4.8915,4.8654,4.8654,4.8654,0,0,4.7405,4.7481,4.7549,4.7707,4.7777,4.7892,4.7838,4.7962,4.8047,4.8043,4.82,4.8255,4.8361,4.8533,4.8613,4.8584,4.8869,4.8791,4.88,4.881,4.8905,4.8929,4.8951,4.8663,4.8661,4.866,0,0,4.7572,4.7642,4.777,4.7841,4.7948,4.7989,4.802,4.8126,4.8162,4.8319,4.8318,4.8421,4.8617,4.8692,4.8755,4.8949,4.8943,4.8984,4.9068,4.9164,4.9184,4.9202,4.9269,4.9293,4.9,4.9001,4.9001,0,4.7633,4.7804,4.7837,4.7961,4.803,4.8029,4.816,4.8228,4.8366,4.8414,4.8379,4.8624,4.8695,4.8884,4.8931,4.8983,4.9019,4.897,4.9178,4.9197,4.9214,4.9279,4.9304,4.9005,4.9004,4.9004,4.9003,0,4.7874,4.7992,4.8084,4.8213,4.8293,4.842,4.8473,4.855,4.8562,4.8607,4.8767,4.8852,4.8978,4.9025,4.904,4.9216,4.9194,4.9169,4.9107,4.9243,4.9304,4.9329,4.9011,4.9009,4.9008,4.9007,0,0,4.8071,4.8215,4.8248,4.8306,4.8423,4.8515,4.8642,4.8763,4.8827,4.8923,4.9029,4.9194,4.917,4.9243,4.9266,4.935,4.9494,4.9314,4.9317,4.9342,4.9691,4.9708,4.9736,4.9491,4.9496,4.95,4.9682,0,4.8248,4.847,4.8503,4.8699,4.8808,4.8808,4.8918,4.9002,4.9048,4.9148,4.9199,4.9314,4.9275,4.9318,4.9401,4.9459,4.9565,4.9447,4.959,4.9595,4.9562,4.9769,4.9788,4.9955,4.9706,4.971,4.9713,0,4.8486,4.8583,4.879,4.8889,4.8936,4.9034,4.9146,4.9242,4.9337,4.9364,4.9443,4.9455,4.9587,4.9519,4.97,4.9619,4.968,4.9717,4.9725,4.9738,4.9661,4.9786,5.001,5.0034,4.9752,4.9748,4.9746,0,4.8605,4.879,4.8936,4.8986,4.9106,4.9175,4.9228,4.9318,4.9388,4.9487,4.9533,4.9647,4.971,4.9798,4.984,4.9788,5.0018,4.9955,5.0043,5.0042,5.0091,5.0087,5.0325,5.0133,5.0133,5.0133,5.0132,0,4.88,4.8925,4.8991,4.9081,4.9221,4.9258,4.9397,4.9448,4.9528,4.9628,4.9637,4.9731,4.9782,4.9884,4.9918,5.0061,5.0091,5.0116,5.0123,5.0114,5.011,5.0153,5.0142,5.0139,5.0138,5.0137,5.0135,0,4.8957,4.9006,4.9165,4.9265,4.9293,4.9392,4.9478,4.9565,4.9609,4.9736,4.9768,4.9838,4.9958,5.0009,5.0158,5.0181,5.0344,5.0344,5.0311,5.0313,5.0398,5.0389,5.0671,5.0709,5.0494,5.0496,5.0498,0,4.9077,4.9173,4.9282,4.9348,4.9403,4.9511,4.9581,4.9622,4.9695,4.9808,4.9882,5.0002,5.0099,5.0291,5.0356,5.0469,5.047,5.0562,5.0488,5.0475,5.0469,5.0462,5.0471,5.0575,5.0577,5.0579,5.058,0,4.9284,4.9302,4.9403,4.9512,4.9595,4.9684,4.977,4.9824,4.9878,4.996,5.0081,5.0156,5.0306,5.0424,5.0541,5.0597,5.0598,5.0603,5.0629,5.062,5.0596,5.0607,5.0346,5.0596,5.0594,5.0593,5.0592,5.0592,4.9425,4.9509,4.9598,4.9709,4.9777,4.9857,4.9943,4.9997,5.0098,5.0222,5.024,5.0369,5.046,5.0616,5.0676,5.0778,5.0756,5.0794,5.0804,5.0812,5.0816,5.0581,5.08,5.08,5.08,5.0799,5.0799,0,4.963,4.9686,4.9788,4.9907,4.9994,4.9985,5.0079,5.0153,5.0266,5.035,5.0445,5.0583,5.0698,5.077,5.0886,5.0953,5.0956,5.0982,5.0977,5.0989,5.0831,5.0796,5.0977,5.0977,5.0977,5.0977,5.0977,5.0977,4.9747,4.9888,4.9917,5.0092,5.0148,5.0273,5.0327,5.0401,5.0467,5.0621,5.0715,5.0761,5.084,5.0961,5.1065,5.1083,5.1124,5.1151,5.1168,5.1019,5.1,5.0983,5.095,5.116,5.1161,5.1317,5.1319,5.132]},{"header":{"parameterUnit":"m.s-1","parameterCategory":1,"la1":30.2991,"la2":30.254,"lo1":-89.0895,"lo2":-89.0444,"dy":0.0017,"dx":0.0017,"nx":28,"ny":28,"refTime":"2025-06-09T21:00:00:Z","depth":0,"parameterNumber":3,"parameterNumberName":"V-component_of_WINDS"},"data":[0,0,0,0,0,0,0,0,0,0,0,0,0,0,0,0,0,0,0,0,0,0,0,0,0,0,0,0,0,0,0,0,0,0,0,0,0,0,0,0,0,0,0,0,0,0,0,0,0,0,0,0,0,0,0,0,0,0,1.14,1.14,0,1.1388,1.1388,1.1388,1.1348,1.1348,1.1347,1.1346,1.1333,1.1334,1.1334,0,0,0,0,0,0,0,0,0,0,0,0,0,1.1389,1.1389,1.14,1.14,1.14,1.1388,1.1388,1.1387,1.1349,1.1348,1.1347,1.1346,1.1333,1.1334,1.1334,0,0,0,0,0,0,0,0,0,0,0,0,0,1.1387,1.1389,1.14,1.1379,1.1377,1.1388,1.1388,1.1387,1.1349,1.1348,1.1346,1.1345,1.1333,1.1334,1.1334,1.1365,0,0,1.1336,1.1337,0,0,0,0,0,0,0,0,1.1387,1.1387,1.1382,1.1381,1.1378,1.1368,1.1379,1.138,1.1349,1.136,1.1346,1.1344,1.1346,1.1346,1.1346,1.1364,1.1364,1.1337,1.1337,1.1337,1.1337,0,0,0,0,0,0,0,1.1387,1.1387,1.1395,1.1382,1.138,1.137,1.1368,1.1379,1.136,1.1359,1.1356,1.1355,1.1345,1.1345,1.1345,1.1363,1.1336,1.1337,1.1338,1.1338,1.1404,1.1405,0,0,0,0,0,0,1.139,1.1388,1.1396,1.1395,1.1379,1.1371,1.1369,1.1373,1.136,1.1357,1.1356,1.1353,1.1345,1.1345,1.1345,1.1379,1.1337,1.1338,1.1338,1.1402,1.1404,1.1405,0,0,0,0,0,0,1.139,1.1391,1.1396,1.1391,1.139,1.1372,1.1377,1.1373,1.1374,1.1358,1.1354,1.136,1.1344,1.1344,1.136,1.1378,1.1338,1.1339,1.1401,1.1403,1.1405,1.1448,0,0,0,0,0,0,1.139,1.1392,1.1404,1.1391,1.1391,1.1412,1.1378,1.1374,1.1375,1.1372,1.1361,1.1358,1.1343,1.1359,1.136,1.1378,1.1339,1.1399,1.1402,1.1404,1.1445,1.1451,1.1456,0,0,0,0,0,1.139,1.1417,1.1404,1.1406,1.1406,1.1413,1.1413,1.1395,1.1377,1.1389,1.1378,1.1359,1.1375,1.1361,1.1362,1.1381,1.1398,1.1401,1.1404,1.1442,1.145,1.1456,0,0,0,0,0,0,1.1432,1.1415,1.1401,1.1425,1.1421,1.1407,1.1421,1.1404,1.1405,1.1401,1.1378,1.1376,1.1395,1.1389,1.1373,1.1408,1.1383,1.1387,1.1412,1.1419,1.1425,1.1426,1.134,0,0,0,0,0,1.1444,1.1452,1.1436,1.1459,1.1457,1.1439,1.1442,1.1428,1.1423,1.1421,1.1411,1.1407,1.1411,1.1414,1.1417,1.1443,1.144,1.1456,1.1462,1.1467,1.147,1.1482,1.1489,1.1415,1.1415,1.1415,0,0,1.147,1.1461,1.1468,1.1467,1.1462,1.147,1.1438,1.1449,1.1454,1.1423,1.1437,1.1429,1.1423,1.1443,1.1452,1.1439,1.1489,1.147,1.1474,1.1475,1.1486,1.1493,1.1499,1.1417,1.1417,1.1416,0,0,1.152,1.1514,1.1532,1.1527,1.152,1.1507,1.1512,1.1499,1.1493,1.1507,1.1483,1.1489,1.1497,1.1492,1.1491,1.1537,1.1519,1.1539,1.157,1.1582,1.1588,1.1593,1.1609,1.1615,1.1542,1.1542,1.1542,0,1.1553,1.1564,1.1543,1.1555,1.1555,1.1525,1.1542,1.1539,1.1533,1.1533,1.1519,1.1527,1.152,1.1539,1.155,1.155,1.1553,1.1541,1.1588,1.1593,1.1598,1.1613,1.1619,1.1544,1.1544,1.1544,1.1544,0,1.1604,1.1613,1.1627,1.1622,1.1623,1.1638,1.1618,1.1622,1.1607,1.1595,1.1609,1.1599,1.16,1.1602,1.1589,1.1619,1.1611,1.1593,1.1567,1.1607,1.1621,1.1627,1.1548,1.1547,1.1546,1.1546,0,0,1.1684,1.1664,1.167,1.1667,1.1655,1.1661,1.1673,1.1673,1.1676,1.1672,1.1682,1.1687,1.167,1.1669,1.1653,1.1664,1.17,1.1644,1.1643,1.1655,1.1732,1.1746,1.1753,1.1687,1.1688,1.1689,1.1732,0,1.1731,1.1752,1.1732,1.1756,1.1762,1.1733,1.1743,1.1737,1.1726,1.173,1.1717,1.1722,1.1698,1.1697,1.1706,1.1694,1.1715,1.169,1.1695,1.1696,1.1699,1.1761,1.1776,1.1818,1.1738,1.1738,1.1739,0,1.1791,1.1789,1.1813,1.1799,1.1801,1.1811,1.1808,1.1811,1.1803,1.1794,1.1792,1.1773,1.1782,1.1756,1.1769,1.1753,1.1753,1.1747,1.1748,1.1749,1.1721,1.1763,1.1831,1.1837,1.1747,1.1747,1.1746,0,1.1846,1.185,1.1864,1.1862,1.1846,1.1853,1.1846,1.1836,1.1837,1.1834,1.1833,1.1832,1.1831,1.183,1.181,1.1793,1.1825,1.1798,1.1818,1.1818,1.1827,1.1827,1.1896,1.1826,1.1826,1.1826,1.1826,0,1.1902,1.1918,1.1889,1.1898,1.1915,1.1891,1.1908,1.1898,1.1889,1.1895,1.1869,1.1876,1.1849,1.1852,1.1837,1.1849,1.1849,1.1842,1.1838,1.1845,1.1846,1.1846,1.1843,1.1828,1.1827,1.1827,1.1827,0,1.1968,1.1949,1.1963,1.1945,1.1941,1.1954,1.1939,1.1946,1.1932,1.194,1.1941,1.1919,1.1921,1.1901,1.19,1.1889,1.1909,1.1899,1.1912,1.191,1.1931,1.1929,1.2003,1.2011,1.1936,1.1936,1.1937,0,1.2006,1.2017,1.2,1.2002,1.1997,1.2001,1.2,1.1976,1.1977,1.1967,1.1975,1.1975,1.1974,1.1978,1.1963,1.1961,1.1951,1.1977,1.1951,1.1957,1.1952,1.1952,1.1953,1.1983,1.1984,1.1985,1.1985,0,1.2074,1.2064,1.2065,1.2062,1.2062,1.2059,1.2053,1.2056,1.203,1.2032,1.2034,1.2032,1.203,1.203,1.2025,1.2017,1.1997,1.1993,1.1998,1.2006,1.2013,1.2009,1.1928,1.1992,1.1992,1.1991,1.1991,1.199,1.2127,1.2136,1.2125,1.2126,1.2119,1.2114,1.212,1.2106,1.2107,1.2104,1.2089,1.2093,1.2082,1.2072,1.2066,1.2069,1.2056,1.2063,1.2064,1.2067,1.2071,1.2011,1.2067,1.2067,1.2067,1.2067,1.2067,0,1.2195,1.2186,1.2187,1.218,1.2181,1.216,1.2153,1.2155,1.2159,1.215,1.2149,1.215,1.2149,1.2132,1.2129,1.2134,1.2125,1.2134,1.2134,1.2133,1.2082,1.2079,1.2142,1.2142,1.2142,1.2142,1.2142,1.2142,1.223,1.2243,1.2231,1.2239,1.223,1.2234,1.2231,1.2226,1.2219,1.2221,1.222,1.2209,1.2197,1.2192,1.219,1.2185,1.2185,1.2198,1.219,1.2144,1.2136,1.2129,1.2126,1.2198,1.2198,1.224,1.2241,1.2241]}]]